User: anonymous   Login
Location: *
(18.5200°S, 46.4500°E)
Time: 08:29:30
(UTC+00:00)
Language:

SMAP - Orbit

View from above orbital plane
View from above orbital plane
View from above satellite
View from above satellite

Ground track
Ground track

The orbit data is extracted from the following two-line orbital elements,

1 40376U 15003A   19262.11431941  .00000011  00000-0  11135-4 0  9990
2 40376  98.1240 267.6689 0001968  91.3613 268.7814 14.63383519247391
Epoch (UTC): 19 September 2019 02:44:37
Eccentricity: 0.0001968
inclination: 98.1240°
perigee height: 681 km
apogee height: 683 km
right ascension of ascending node: 267.6689°
argument of perigee: 91.3613°
revolutions per day: 14.63383519
mean anomaly at epoch: 268.7814°
orbit number at epoch: 24739

The dashed part of the orbit path shows where the satellite is in the earth's shadow,  

DLR